Flag for U.S.A. Weather past 2 weeks in Helena, Montana, U.S.A.

Now
52 °F

Clear.


Feels Like: 52 °F
Forecast: 51 / 81 °F
Wind: No wind

Location: Helena Regional Airport

Current Time: Sep 22, 2014 at 7:13:25 AM

Latest Report: Sep 22, 2014 at 5:53 AM


Visibility: 10 mi

Pressure: 29.99 "Hg

Humidity: 75%

Dew point: 44 °F

Location of HelenaLocation

Historic Weather in Helena — Graph

°F

Helena temperature yesterday

Maximum temperature yesterday: 79 °F (at 3:53 PM)
Minimum temperature yesterday: 45 °F (at 6:53 AM)
Average temperature yesterday: 62 °F

Past Weeks' High & Low Weather Summary

 TemperatureHumidityPressure
High85 °F (Sep 7, 3:53 PM)90% (Sep 10, 4:53 AM)30.59 "Hg (Sep 10, 4:53 AM)
Low29 °F (Sep 12, 6:53 AM)9% (Sep 7, 3:53 PM)29.70 "Hg (Sep 8, 4:53 PM)
Average56 °F54%30.09 "Hg
* Reported Sep 7 5:53 AM — Sep 22 5:53 AM, Helena, Weather by CustomWeather, © 2014

Note: Actual official high and low records may vary slightly from our data, if they occured in-between our weather recording intervals... More about our weather records

Advertising

Helena weather history for previous 24 hours

 ConditionsComfort  
Time TempWeatherWind HumidityBarometerVisibility
5:53 AM
Sep 22
52 °FClear.No wind75%29.99 "Hg10 mi
4:53 AM53 °FClear.No wind72%29.99 "Hg10 mi
3:53 AM54 °FClear.No wind69%29.98 "Hg10 mi
2:53 AM54 °FClear.3 mph69%29.99 "Hg10 mi
1:53 AM56 °FClear.No wind67%30.00 "Hg10 mi
12:53 AM56 °FClear.No wind67%30.02 "Hg10 mi
11:53 PM
Sep 21
58 °FClear.3 mph62%30.02 "Hg10 mi
10:53 PM60 °FClear.5 mph58%30.03 "Hg10 mi
9:53 PM63 °FClear.No wind52%30.03 "Hg10 mi
8:53 PM65 °FClear.3 mph52%30.05 "Hg10 mi
7:53 PM71 °FSunny.6 mph42%30.02 "Hg10 mi
6:53 PM75 °FSunny.6 mph34%30.02 "Hg10 mi
5:53 PM79 °FSunny.7 mph30%30.01 "Hg10 mi
4:53 PM79 °FSunny.6 mph30%30.03 "Hg10 mi
3:53 PM79 °FSunny.5 mph31%30.05 "Hg10 mi
2:53 PM77 °FSunny.3 mph31%30.09 "Hg10 mi
1:53 PM74 °FSunny.5 mph36%30.12 "Hg10 mi
12:53 PM68 °FSunny.No wind42%30.16 "Hg10 mi
11:53 AM65 °FSunny.No wind45%30.19 "Hg10 mi
10:53 AM61 °FSunny.No wind52%30.22 "Hg10 mi
9:53 AM55 °FSunny.No wind62%30.25 "Hg10 mi
8:53 AM53 °FSunny.6 mph66%30.25 "Hg10 mi
7:53 AM48 °FClear.3 mph74%30.25 "Hg10 mi
Weather by CustomWeather, © 2014

See weather overviewHow to use our weather pages